This demonstration page uses our WeatherBlox Daily Observations layout. Learn more.

Left ArrowRight Arrow

Hourly Observations for March 19, 2020

Temp ( °F °C ) Dew Point ( °F °C ) Humidity (%) Winds ( mph kmh ) Pressure ( in mb ) Visibility ( mi km ) Precip ( " mm )
12:38 am 00:38 Cloudy with Mist and Fog 50 10 49 9.4 96 96 E 5 7 29.89 1012 1.75 2.816345 0 0
12:54 am 00:54 Cloudy with Mist and Fog 51 10.6 49 9.4 92 92 E 5 7 29.88 1012 0.75 1.207005 0 0
1:01 am 01:01 Cloudy with Mist and Fog 51 10.6 49 9.4 92 92 E 6 9 29.89 1012 1 1.60934 0 0
1:12 am 01:12 Mostly Cloudy with Mist and Fog 51 10.6 49 9.4 92 92 E 6 9 29.89 1012 0.75 1.207005 0 0
1:25 am 01:25 Mostly Cloudy with Mist and Fog 51 10.6 49 9.4 92 92 ESE 6 9 29.89 1012 1 1.60934 0 0
1:54 am 01:54 Mostly Cloudy with Mist and Fog 51 10.6 50 10 96 96 ESE 8 13 29.88 1012 1 1.60934 0 0
2:15 am 02:15 Mostly Cloudy with Mist and Fog 51 10.6 50 10 96 96 ESE 8 13 29.88 1012 0.75 1.207005 0 0
2:54 am 02:54 Mostly Cloudy with Mist and Fog 52 11.1 50 10 93 93 ESE 8 13 29.84 1010 0.75 1.207005 0 0
3:08 am 03:08 Mostly Cloudy with Mist and Fog 51 10.6 50 10 96 96 E 7 11 29.83 1010 1 1.60934 0 0
3:26 am 03:26 Mostly Cloudy with Mist and Fog 51 10.6 50 10 96 96 E 7 11 29.82 1010 0.75 1.207005 0 0
3:34 am 03:34 Mostly Cloudy with Mist and Fog 51 10.6 50 10 96 96 ESE 7 11 29.82 1010 1 1.60934 0 0
3:54 am 03:54 Cloudy with Mist and Fog 51 10.6 50 10 96 96 ESE 8 13 29.8 1009 1.5 2.41401 0 0
4:03 am 04:03 Cloudy with Mist and Fog 52 11.1 50 10 93 93 ESE 8 13 29.81 1009 2.5 4.02335 0 0
4:22 am 04:22 Cloudy with Mist and Fog 52 11.1 50 10 93 93 ESE 9 15 29.79 1009 1.75 2.816345 0 0
4:50 am 04:50 Mostly Cloudy with Mist and Fog 52 11 50 10 94 94 ESE 10 17 29.76 1008 0.75 1.207005 0 0
4:54 am 04:54 Mostly Cloudy with Mist and Fog 52 11.1 51 10.6 97 97 ESE 9 15 29.74 1007 0.75 1.207005 0 0
5:54 am 05:54 Mostly Cloudy with Mist and Fog 52 11.1 51 10.6 97 97 E 7 11 29.75 1008 0.75 1.207005 0 0
6:18 am 06:18 Cloudy with Mist and Fog 53 11.7 51 10.6 93 93 E 7 11 29.74 1007 1.25 2.011675 0 0
6:39 am 06:39 Cloudy with Mist and Fog 53 11.7 51 10.6 93 93 ESE 8 13 29.73 1007 2.5 4.02335 0 0
6:51 am 06:51 Cloudy with Light Rain 54 12 52 11 94 94 SE 8 13 29.73 1007 4 6.43736 0.001 0.001
6:54 am 06:54 Cloudy with Mist and Fog 53 11.7 52 11.1 96 96 ESE 8 13 29.72 1007 4 6.43736 0.001 0.001
7:18 am 07:18 Cloudy with Light Rain 53 11.7 52 11.1 96 96 SSE 6 9 29.71 1006 2.5 4.02335 0.001 0.001
7:25 am 07:25 Cloudy with Mist and Fog 53 11.7 52 11.1 96 96 SE 6 9 29.71 1006 3 4.82802 0.001 0.001
7:54 am 07:54 Cloudy with Mist and Fog 53 11.7 52 11.1 96 96 SE 5 7 29.67 1005 6 9.65604 0.001 0.001
8:16 am 08:16 Cloudy with Mist and Fog 54 12.2 52 11.1 93 93 SSE 5 7 29.69 1005 5 8.0467 0 0
8:44 am 08:44 Cloudy 56 13.3 54 12.2 93 93 SSE 10 17 29.68 1005 7 11.26538 0 0
8:54 am 08:54 Cloudy with Mist and Fog 56 13.3 54 12.2 93 93 SSE 12 19 29.67 1005 6 9.65604 0 0
9:34 am 09:34 Cloudy with Light Rain 58 14.4 56 13.3 93 93 S 10 17 29.65 1004 7 11.26538 0.001 0.001
9:54 am 09:54 Cloudy with Light Rain 57 13.9 55 12.8 93 93 WNW 5 7 29.66 1004 6 9.65604 0.01 0.254
10:34 am 10:34 Cloudy with Light Rain 53 11.7 51 10.6 93 93 N 21 33 29.68 1005 2.5 4.02335 0.02 0.508
10:54 am 10:54 Cloudy with Light Rain 52 11.1 50 10 93 93 N 17 28 29.68 1005 2.5 4.02335 0.03 0.762
11:01 am 11:01 Cloudy with Mist and Fog 51 10.6 49 9.4 92 92 N 15 24 29.69 1005 3 4.82802 0.001 0.001
11:08 am 11:08 Cloudy with Light Rain 51 10.6 49 9.4 92 92 NNE 15 24 29.69 1005 3 4.82802 0.001 0.001
11:16 am 11:16 Cloudy with Light Rain 51 10.6 49 9.4 92 92 N 9 15 29.7 1006 3 4.82802 0.001 0.001
11:29 am 11:29 Cloudy with Mist and Fog 51 10.6 49 9.4 92 92 NNE 7 11 29.7 1006 3 4.82802 0.001 0.001
11:54 am 11:54 Cloudy with Mist and Fog 51 10.6 49 9.4 92 92 NE 6 9 29.68 1005 3 4.82802 0.001 0.001
12:54 pm 12:54 Cloudy 53 11.7 50 10 89 89 NNE 7 11 29.65 1004 10 16.0934 0 0
1:24 pm 13:24 Cloudy 55 12.8 51 10.6 87 87 NNE 6 9 29.65 1004 10 16.0934 0 0
1:54 pm 13:54 Cloudy with Light Rain 56 13.3 53 11.7 90 90 NE 7 11 29.62 1003 10 16.0934 0.001 0.001
2:54 pm 14:54 Cloudy 56 13.3 52 11.1 87 87 N 16 26 29.62 1003 9 14.48406 0.001 0.001
3:19 pm 15:19 Cloudy with Nearby Thunderstorms 53 11.7 50 10 89 89 N 18 30 29.63 1004 10 16.0934 0 0
3:32 pm 15:32 Cloudy with Thunderstorms 51 10.6 49 9.4 92 92 N 18 30 29.62 1003 6 9.65604 0 0
3:47 pm 15:47 Cloudy with Nearby Thunderstorms 50 10 48 8.9 93 93 N 18 30 29.63 1003 10 16.0934 0 0
3:54 pm 15:54 Cloudy with Thunderstorms 50 10 47 8.3 89 89 N 24 39 29.61 1003 6 9.65604 0.001 0.001
3:59 pm 15:59 Cloudy with Heavy Thunderstorms 50 10 47 8.3 89 89 N 20 31 29.62 1003 1.75 2.816345 0.03 0.762
4:08 pm 16:08 Cloudy with Heavy Thunderstorms 50 10 48 8.9 93 93 N 20 31 29.62 1003 0.75 1.207005 0.27 6.858
4:13 pm 16:13 Windy with Storms Likely 51 10.6 48 8.9 89 89 N 21 33 29.61 1003 2 3.21868 0.34 8.636
4:17 pm 16:17 Cloudy with Nearby Thunderstorms 52 11.1 50 10 93 93 N 18 30 29.61 1003 8 12.87472 0.34 8.636
4:29 pm 16:29 Cloudy 51 10.6 48 8.9 89 89 N 17 28 29.63 1003 10 16.0934 0.34 8.636
4:39 pm 16:39 Cloudy with Nearby Thunderstorms 51 10.6 48 8.9 89 89 NNE 21 33 29.62 1003 10 16.0934 0.34 8.636
4:54 pm 16:54 Cloudy with Nearby Thunderstorms 50 10 47 8.3 89 89 NE 14 22 29.64 1004 10 16.0934 0.34 8.636
5:29 pm 17:29 Cloudy 49 9.4 46 7.8 90 90 NNE 18 30 29.66 1005 10 16.0934 0.09 2.286
5:45 pm 17:45 Cloudy with Light Rain 48 8.9 45 7.2 89 89 N 23 37 29.69 1005 6 9.65604 0.09 2.286
5:54 pm 17:54 Cloudy 47 8.3 45 7.2 93 93 N 24 39 29.67 1005 8 12.87472 0.09 2.286
6:26 pm 18:26 Cloudy 46 7.8 43 6.1 89 89 N 28 44 29.7 1006 9 14.48406 0 0
6:54 pm 18:54 Cloudy 46 7.8 41 5 83 83 N 25 41 29.71 1006 10 16.0934 0 0
7:02 pm 19:02 Cloudy 45 7.2 41 5 86 86 NNE 28 44 29.74 1007 10 16.0934 0 0
7:09 pm 19:09 Cloudy 45 7.2 41 5 86 86 N 24 39 29.75 1008 10 16.0934 0 0
7:54 pm 19:54 Cloudy 44 6.7 39 3.9 83 83 N 26 43 29.79 1009 10 16.0934 0 0
8:07 pm 20:07 Cloudy 43 6.1 39 3.9 86 86 N 33 54 29.82 1010 10 16.0934 0 0
8:28 pm 20:28 Cloudy 42 5.6 37 2.8 82 82 N 28 44 29.85 1011 10 16.0934 0 0
8:54 pm 20:54 Cloudy 39 3.9 35 1.7 86 86 N 26 43 29.87 1011 10 16.0934 0 0
9:54 pm 21:54 Cloudy 37 2.8 33 0.6 86 86 N 28 44 29.96 1015 10 16.0934 0 0
10:54 pm 22:54 Windy with Snow Likely 35 1.7 31 -0.6 85 85 N 24 39 30.05 1018 5 8.0467 0.001 0.001
11:05 pm 23:05 Cloudy with Light Snow 34 1.1 31 -0.6 89 89 N 18 30 30.1 1019 2.5 4.02335 0.001 0.001
11:13 pm 23:13 Windy with Snow Likely 34 1.1 31 -0.6 89 89 N 22 35 30.09 1019 3 4.82802 0.001 0.001
11:27 pm 23:27 Windy with Snow Likely 33 0.6 30 -1.1 89 89 N 26 43 30.1 1019 5 8.0467 0.02 0.508
11:45 pm 23:45 Windy with Snow Likely 33 0.6 30 -1.1 89 89 N 31 50 30.1 1019 7 11.26538 0.02 0.508
11:54 pm 23:54 Cloudy with Light Wintry Mix 33 0.6 29 -1.7 85 85 N 28 44 30.06 1018 7 11.26538 0.02 0.508

Powered by AerisWeather